FW6835 Weather Reports


time (UTC)temp
C
wind
direction
speed
KPH
gust
KPH
rain 1hr
cm
rain 24hr
cm
rain mn
cm
humidity
%
barometer
mb
20260505204538 13 49 4.8 17.7 0.00 0.00 0.00 87 1004.8
20260505204040 13 69 4.8 17.7 0.00 0.00 0.00 87 1004.9
20260505203540 13 76 4.8 17.7 0.00 0.00 0.00 88 1005.1
20260505203054 13 96 4.8 14.5 0.00 0.00 0.00 87 1005.1
20260505202538 13 54 4.8 16.1 0.00 0.00 0.00 87 1005.2
20260505202037 13 61 4.8 19.3 0.00 0.00 0.00 87 1005.0
20260505201543 13 55 4.8 17.7 0.00 0.00 0.00 88 1004.8
20260505201036 13 69 6.4 17.7 0.00 0.00 0.00 88 1004.9
20260505200536 13 26 6.4 16.1 0.00 0.00 0.00 88 1004.9
20260505200041 13 83 6.4 17.7 0.00 0.00 0.00 88 1005.1
20260505195535 13 82 6.4 25.7 0.00 0.00 0.00 88 1005.2
20260505195035 13 103 6.4 25.7 0.00 0.00 0.00 88 1005.3
20260505194537 13 80 6.4 14.5 0.00 0.00 0.00 88 1005.2
20260505194035 13 136 4.8 19.3 0.00 0.00 0.00 88 1005.5
20260505193536 13 99 4.8 19.3 0.00 0.00 0.00 88 1005.5
20260505193035 14 85 4.8 12.9 0.00 0.00 0.00 87 1005.5
20260505192534 14 86 4.8 16.1 0.00 0.00 0.00 87 1005.5
20260505192037 14 91 3.2 16.1 0.00 0.00 0.00 87 1005.4
20260505191534 14 109 4.8 12.9 0.00 0.00 0.00 87 1005.2
20260505191035 14 93 4.8 12.9 0.00 0.00 0.00 87 1005.2
20260505190533 14 78 4.8 12.9 0.00 0.00 0.00 86 1005.1
20260505190037 14 93 4.8 12.9 0.00 0.00 0.00 86 1005.2
20260505185532 14 78 4.8 16.1 0.00 0.00 0.00 86 1005.2
20260505185032 15 93 4.8 16.1 0.00 0.00 0.00 86 1005.2
20260505184536 15 186 4.8 14.5 0.00 0.00 0.00 86 1005.2
20260505184034 15 90 3.2 16.1 0.00 0.00 0.00 85 1005.2
20260505183530 15 89 4.8 16.1 0.00 0.00 0.00 85 1005.3
20260505183030 15 82 4.8 14.5 0.00 0.00 0.00 85 1005.4
20260505182529 15 39 4.8 14.5 0.00 0.00 0.00 85 1005.4
20260505182028 15 88 3.2 17.7 0.00 0.00 0.00 84 1005.4
20260505181535 15 91 3.2 17.7 0.00 0.00 0.00 84 1005.5
20260505181028 15 82 6.4 16.1 0.00 0.00 0.00 84 1005.5
20260505180527 15 68 3.2 19.3 0.00 0.00 0.00 84 1005.6
20260505180027 15 95 3.2 16.1 0.00 0.00 0.00 84 1005.6
20260505175528 15 67 3.2 11.3 0.00 0.00 0.00 83 1005.7
20260505175026 16 67 3.2 12.9 0.00 0.00 0.00 83 1005.8
20260505174535 16 101 3.2 12.9 0.00 0.00 0.00 83 1005.9
20260505174026 16 57 3.2 11.3 0.00 0.00 0.00 83 1005.9
20260505173525 16 85 3.2 12.9 0.00 0.00 0.00 83 1006.0
20260505173025 16 94 3.2 14.5 0.00 0.00 0.00 83 1006.0
20260505172525 16 97 1.6 12.9 0.00 0.00 0.00 83 1006.0
20260505172024 16 28 3.2 12.9 0.00 0.00 0.00 82 1006.0
20260505171524 16 93 4.8 12.9 0.00 0.00 0.00 82 1006.1
20260505171025 16 67 1.6 8.0 0.00 0.00 0.00 82 1006.1
20260505170523 16 63 3.2 9.7 0.00 0.00 0.00 81 1006.2
20260505170024 16 80 3.2 16.1 0.00 0.00 0.00 81 1006.1
20260505165523 16 121 4.8 16.1 0.00 0.00 0.00 80 1006.0
20260505165023 16 85 3.2 14.5 0.00 0.00 0.00 79 1006.1
20260505164523 17 340 3.2 12.9 0.00 0.00 0.00 78 1005.9
20260505164024 17 89 3.2 17.7 0.00 0.00 0.00 77 1006.0
20260505163522 17 253 3.2 17.7 0.00 0.00 0.00 77 1006.0
20260505163029 17 22 4.8 17.7 0.00 0.00 0.00 76 1006.0
20260505162521 18 84 3.2 16.1 0.00 0.00 0.00 76 1006.1
20260505162021 18 33 4.8 16.1 0.00 0.00 0.00 75 1006.1
20260505161520 18 127 1.6 16.1 0.00 0.00 0.00 76 1006.2
20260505161020 18 71 3.2 16.1 0.00 0.00 0.00 75 1006.4
20260505160520 18 39 6.4 14.5 0.00 0.00 0.00 75 1006.2
20260505153021 18 81 3.2 14.5 0.00 0.00 0.00 74 1006.5
20260505152516 18 106 4.8 14.5 0.00 0.00 0.00 73 1006.4
20260505152017 18 88 1.6 19.3 0.00 0.00 0.00 74 1006.5
20260505151519 19 92 4.8 19.3 0.00 0.00 0.00 73 1006.6
20260505151015 19 82 4.8 19.3 0.00 0.00 0.00 72 1006.7
20260505150518 19 93 4.8 19.3 0.00 0.00 0.00 72 1006.7
20260505140512 19 94 4.8 17.7 0.00 0.00 0.00 68 1007.0
20260505125008 19 118 1.6 11.3 0.00 0.00 0.00 67 1007.4
20260505124510 19 56 3.2 12.9 0.00 0.00 0.00 67 1007.4
20260505124008 19 28 4.8 12.9 0.00 0.00 0.00 66 1007.4
20260505123507 19 192 1.6 12.9 0.00 0.00 0.00 66 1007.4
20260505123006 20 93 3.2 12.9 0.00 0.00 0.00 65 1007.3
20260505122507 20 108 4.8 12.9 0.00 0.00 0.00 66 1007.3
20260505122006 20 76 3.2 14.5 0.00 0.00 0.00 65 1007.3
20260505121512 20 67 4.8 14.5 0.00 0.00 0.00 64 1007.3
20260505121006 20 101 0.0 9.7 0.00 0.00 0.00 64 1007.3
20260505120508 20 259 0.0 11.3 0.00 0.00 0.00 63 1007.3
20260505120006 21 46 0.0 11.3 0.00 0.00 0.00 63 1007.4
20260505115504 21 126 1.6 9.7 0.00 0.00 0.00 63 1007.5
20260505115003 21 166 3.2 14.5 0.00 0.00 0.00 65 1007.3
20260505114504 21 107 1.6 14.5 0.00 0.00 0.00 65 1007.4
20260505114004 20 105 1.6 9.7 0.00 0.00 0.00 64 1007.3
20260505113501 20 123 0.0 9.7 0.00 0.00 0.00 65 1007.4
20260505113005 20 259 1.6 9.7 0.00 0.00 0.00 67 1007.5
20260505112603 20 194 0.0 9.7 0.00 0.00 0.00 64 1007.7
20260505112059 20 88 1.6 9.7 0.00 0.00 0.00 65 1007.6
20260505111559 21 205 1.6 11.3 0.00 0.00 0.00 65 1007.6
20260505111059 21 215 0.0 11.3 0.00 0.00 0.00 64 1007.6
20260505110558 21 243 6.4 14.5 0.00 0.00 0.00 64 1007.7
20260505102051 20 78 1.6 9.7 0.00 0.00 0.00 67 1008.0
20260505101555 20 273 0.0 6.4 0.00 0.00 0.00 66 1008.0
20260505101048 19 83 0.0 6.4 0.00 0.00 0.00 66 1008.0
20260505100548 19 272 1.6 8.0 0.00 0.00 0.00 67 1008.0
20260505100047 19 67 1.6 8.0 0.00 0.00 0.00 68 1007.9
20260505095547 19 90 4.8 8.0 0.00 0.00 0.00 67 1008.1
20260505095046 18 76 0.0 4.8 0.00 0.00 0.00 68 1008.2
20260505094545 18 240 1.6 4.8 0.00 0.00 0.00 69 1008.2
20260505094045 18 244 1.6 11.3 0.00 0.00 0.00 71 1008.3
20260505093544 18 230 3.2 11.3 0.00 0.00 0.00 71 1008.4
20260505093045 18 242 3.2 8.0 0.00 0.00 0.00 70 1008.4
20260505092543 18 240 0.0 11.3 0.00 0.00 0.00 70 1008.4
20260505092044 18 309 4.8 11.3 0.00 0.00 0.00 69 1008.3
20260505091543 18 208 1.6 8.0 0.00 0.00 0.00 70 1008.4
20260505091043 18 289 1.6 12.9 0.00 0.00 0.00 73 1008.5
20260505090539 17 254 4.8 14.5 0.00 0.00 0.00 73 1008.4
20260505090054 17 226 4.8 14.5 0.00 0.00 0.00 75 1008.6
20260505085538 17 244 4.8 12.9 0.00 0.00 0.00 77 1008.5
20260505085037 17 161 1.6 11.3 0.00 0.00 0.00 75 1008.6
20260505084540 17 195 4.8 14.5 0.00 0.00 0.00 75 1008.7
20260505084036 17 265 6.4 14.5 0.00 0.00 0.00 75 1008.7
20260505083533 17 272 4.8 11.3 0.00 0.00 0.00 75 1008.6
20260505083036 17 222 3.2 8.0 0.00 0.00 0.00 76 1008.8
20260505082532 16 299 3.2 11.3 0.00 0.00 0.00 76 1008.7
20260505082031 16 270 1.6 11.3 0.00 0.00 0.00 77 1008.8
20260505081535 16 236 0.0 8.0 0.00 0.00 0.00 80 1008.7
20260505081034 16 189 3.2 8.0 0.00 0.00 0.00 77 1008.7
20260505080530 16 209 0.0 11.3 0.00 0.00 0.00 78 1008.8
20260505080030 16 237 4.8 11.3 0.00 0.00 0.00 75 1008.8
20260505075532 16 230 1.6 6.4 0.00 0.00 0.00 79 1008.8
20260505075028 16 155 1.6 8.0 0.00 0.00 0.00 76 1008.7
20260505074527 16 192 1.6 8.0 0.00 0.00 0.00 78 1008.7
20260505074027 16 189 3.2 8.0 0.00 0.00 0.00 77 1008.9
20260505073527 16 150 3.2 8.0 0.00 0.00 0.00 76 1008.9
20260505073035 16 171 1.6 6.4 0.00 0.00 0.00 77 1008.9
20260505072524 16 236 1.6 6.4 0.00 0.00 0.00 82 1009.0
20260505072024 15 173 0.0 6.4 0.00 0.00 0.00 81 1008.9
20260505071524 15 168 0.0 4.8 0.00 0.00 0.00 81 1009.0
20260505071025 15 168 1.6 4.8 0.00 0.00 0.00 83 1008.9
20260505070525 14 167 0.0 0.0 0.00 0.00 0.00 84 1008.9
20260505070022 13 167 0.0 0.0 0.00 0.00 0.00 84 1009.0
20260505065521 13 167 0.0 0.0 0.00 0.00 0.00 85 1009.2
20260505065021 13 167 0.0 0.0 0.00 0.00 0.00 85 1009.1
20260505064524 13 167 0.0 0.0 0.00 0.00 0.00 86 1009.2
20260505064020 13 167 0.0 0.0 0.00 0.00 0.00 85 1009.3
20260505063519 13 230 0.0 0.0 0.00 0.00 0.00 86 1009.2
20260505063018 13 230 0.0 1.6 0.00 0.00 0.00 86 1009.2
20260505062523 13 230 0.0 11.3 0.00 0.00 0.00 85 1009.1
20260505062016 13 230 3.2 11.3 0.00 0.00 0.00 84 1009.2
20260505061516 13 196 0.0 4.8 0.00 0.00 0.00 84 1009.2
20260505061018 13 196 0.0 4.8 0.00 0.00 0.00 84 1009.3
20260505060516 13 178 0.0 3.2 0.00 0.00 0.00 83 1009.3
20260505060025 13 178 0.0 3.2 0.00 0.00 0.00 83 1009.3
20260505055514 13 178 0.0 3.2 0.00 0.00 0.00 84 1009.2
20260505055014 13 268 0.0 0.0 0.00 0.00 0.00 83 1009.2
20260505054525 13 360 0.0 0.0 0.00 0.00 0.00 85 1008.9
20260505054014 13 360 0.0 0.0 0.00 0.00 0.00 83 1008.9
20260505053512 13 360 0.0 0.0 0.00 0.00 0.00 83 1008.9
20260505053011 13 360 0.0 0.0 0.00 0.00 0.00 82 1008.9
20260505052510 12 360 0.0 0.0 0.00 0.00 0.00 82 1008.8
20260505052011 12 360 0.0 0.0 0.00 0.00 0.00 83 1009.0
20260505051509 12 360 0.0 0.0 0.00 0.00 0.00 82 1009.0
20260505051007 12 360 0.0 0.0 0.00 0.00 0.00 82 1008.9
20260505050508 12 360 0.0 0.0 0.00 0.00 0.00 81 1008.9
20260505041559 13 355 0.0 0.0 0.00 0.00 0.00 77 1008.8
20260505041059 13 355 0.0 0.0 0.00 0.00 0.00 77 1009.0
20260505040601 13 349 0.0 0.0 0.00 0.00 0.00 77 1008.9
20260505035556 13 349 0.0 0.0 0.00 0.00 0.00 78 1009.0
20260505035056 13 349 0.0 0.0 0.00 0.00 0.00 77 1008.9
20260505034555 13 349 0.0 0.0 0.00 0.00 0.00 78 1009.0
20260505034055 13 349 0.0 0.0 0.00 0.00 0.00 77 1009.1
20260505033555 13 349 0.0 0.0 0.00 0.00 0.00 77 1009.1
20260505033112 13 348 0.0 1.6 0.00 0.00 0.00 76 1009.0
20260505032554 13 348 0.0 1.6 0.00 0.00 0.00 76 1009.2
20260505032052 13 348 0.0 0.0 0.00 0.00 0.00 76 1009.2
20260505031553 13 348 0.0 0.0 0.00 0.00 0.00 75 1009.1
20260505031055 13 348 0.0 0.0 0.00 0.00 0.00 75 1009.2
20260505030555 13 348 0.0 0.0 0.00 0.00 0.00 75 1009.2
20260505030053 13 348 0.0 0.0 0.00 0.00 0.00 75 1009.2
20260505025552 13 348 0.0 1.6 0.00 0.00 0.00 76 1009.4
20260505025051 13 348 0.0 4.8 0.00 0.00 0.00 76 1009.4
20260505024552 13 338 0.0 1.6 0.00 0.00 0.00 76 1009.5
20260505024050 13 49 0.0 3.2 0.00 0.00 0.00 77 1009.5
20260505023550 13 50 0.0 3.2 0.00 0.00 0.00 77 1009.6
20260505023100 13 12 0.0 3.2 0.00 0.00 0.00 77 1009.6
20260505022552 13 12 0.0 4.8 0.00 0.00 0.00 77 1009.8
20260505022052 13 13 1.6 4.8 0.00 0.00 0.00 77 1009.9
20260505021548 13 49 0.0 4.8 0.00 0.00 0.00 76 1009.9
20260505021046 13 57 0.0 4.8 0.00 0.00 0.00 76 1009.9
20260505020545 13 60 0.0 3.2 0.00 0.00 0.00 74 1010.0
20260505020049 13 59 0.0 1.6 0.00 0.00 0.00 75 1010.0
20260505015543 13 59 0.0 0.0 0.00 0.00 0.00 74 1010.1
20260505015045 14 59 0.0 0.0 0.00 0.00 0.00 74 1010.1
20260505014541 14 59 0.0 0.0 0.00 0.00 0.00 73 1010.3
20260505014044 14 59 0.0 0.0 0.00 0.00 0.00 73 1010.3
20260505013541 14 59 0.0 0.0 0.00 0.00 0.00 73 1010.3
20260505013040 14 59 0.0 0.0 0.00 0.00 0.00 72 1010.3
20260505012540 14 59 0.0 3.2 0.00 0.00 0.00 72 1010.4
20260505012039 14 63 0.0 3.2 0.00 0.00 0.00 73 1010.4
20260505011539 14 64 0.0 3.2 0.00 0.00 0.00 73 1010.4
20260505011037 15 65 0.0 3.2 0.00 0.00 0.00 72 1010.5
20260505010537 15 65 0.0 0.0 0.00 0.00 0.00 71 1010.7
20260505010041 15 65 0.0 0.0 0.00 0.00 0.00 70 1010.6
20260505005536 15 65 0.0 0.0 0.00 0.00 0.00 69 1010.7
20260505005036 15 65 0.0 0.0 0.00 0.00 0.00 68 1010.8
20260505004545 15 65 0.0 0.0 0.00 0.00 0.00 69 1010.8
20260505004037 15 65 0.0 0.0 0.00 0.00 0.00 67 1010.8
20260505003535 15 65 0.0 0.0 0.00 0.00 0.00 68 1010.7
20260505003038 15 65 0.0 3.2 0.00 0.00 0.00 68 1010.8
20260505002535 15 71 0.0 6.4 0.00 0.00 0.00 67 1010.6
20260505002034 15 95 3.2 6.4 0.00 0.00 0.00 67 1010.8
20260505001534 15 36 0.0 4.8 0.00 0.00 0.00 69 1010.7
20260505001034 15 80 0.0 6.4 0.00 0.00 0.00 69 1010.8
20260505000534 15 84 1.6 8.0 0.00 0.00 0.00 70 1011.0
20260505000035 15 37 3.2 8.0 0.00 0.00 0.00 70 1011.0
20260504235533 15 42 1.6 6.4 0.00 0.00 0.00 70 1010.8
20260504235134 15 65 1.6 6.4 0.00 0.00 0.00 70 1011.0
20260504234543 15 55 1.6 9.7 0.00 0.00 0.00 70 1011.1
20260504234032 15 52 1.6 9.7 0.00 0.00 0.00 70 1011.1
20260504233530 15 69 1.6 8.0 0.00 0.00 0.00 70 1011.0
20260504233034 15 68 1.6 8.0 0.00 0.00 0.00 70 1011.2
20260504232530 15 65 3.2 8.0 0.00 0.00 0.00 70 1011.2
20260504232029 15 57 3.2 9.7 0.00 0.00 0.00 70 1011.3
20260504231539 15 37 1.6 6.4 0.00 0.00 0.00 70 1011.4
20260504231030 15 78 1.6 8.0 0.00 0.00 0.00 70 1011.4
20260504230528 15 350 0.0 8.0 0.00 0.00 0.00 71 1011.4
20260504230028 15 49 1.6 8.0 0.00 0.00 0.00 70 1011.4
20260504225528 15 333 1.6 6.4 0.00 0.00 0.00 71 1011.3
20260504225029 15 65 0.0 8.0 0.00 0.00 0.00 71 1011.5
20260504224527 15 68 1.6 9.7 0.00 0.00 0.00 71 1011.6
20260504224022 15 71 1.6 9.7 0.00 0.00 0.00 72 1011.7
20260504223521 15 74 3.2 8.0 0.00 0.00 0.00 72 1011.7
20260504223022 15 78 1.6 8.0 0.00 0.00 0.00 72 1011.7
20260504222523 15 74 1.6 9.7 0.00 0.00 0.00 73 1011.5
20260504222021 15 78 1.6 9.7 0.00 0.00 0.00 73 1011.7
20260504221520 15 61 3.2 8.0 0.00 0.00 0.00 72 1011.7
20260504221022 15 153 1.6 9.7 0.00 0.00 0.00 73 1012.0
20260504220518 15 74 1.6 9.7 0.00 0.00 0.00 73 1012.1
20260504220017 15 69 1.6 9.7 0.00 0.00 0.00 74 1012.2
20260504215516 14 109 1.6 6.4 0.00 0.00 0.00 75 1012.2
20260504215020 14 61 1.6 6.4 0.00 0.00 0.00 75 1012.3
20260504214518 14 63 3.2 4.8 0.00 0.00 0.00 76 1012.2
20260504214016 14 67 3.2 4.8 0.00 0.00 0.00 76 1012.3
20260504213521 14 79 1.6 4.8 0.00 0.00 0.00 76 1012.4
20260504213016 14 80 1.6 4.8 0.00 0.00 0.00 76 1012.6
20260504212516 14 69 1.6 4.8 0.00 0.00 0.00 76 1012.6
20260504212015 14 51 0.0 4.8 0.00 0.00 0.00 76 1012.5
20260504211516 14 64 0.0 4.8 0.00 0.00 0.00 76 1012.5
20260504211015 14 65 0.0 4.8 0.00 0.00 0.00 76 1012.6
20260504210518 14 65 1.6 4.8 0.00 0.00 0.00 76 1012.5
20260504210015 13 68 1.6 4.8 0.00 0.00 0.00 76 1012.7
20260504205517 13 68 0.0 3.2 0.00 0.00 0.00 77 1012.6
20260504205015 13 69 0.0 3.2 0.00 0.00 0.00 76 1012.6